Simultaneous Nadir Overpasses (SNOs) Predictions

Prediction of SNOs between GOES-17 and AQUA Satellite Orbit:

Table of predicted SNOs for the next 14.0 days since TLE Epoch: 11/1/2019
Index Date Time (GOES-17) GOES-17 Lat,Lon AQUA Lat,Lon Distance(km) Time Diff (sec)
1 11/02/2019 10:45:25 0.00,-137.21 -0.02,-137.18 4.61 80
2 11/04/2019 10:33:13 0.00,-137.20 -0.66,-134.22 339.78 80
3 11/04/2019 22:51:55 -0.00,-137.19 -0.49,-139.40 251.36 80
4 11/06/2019 22:42:24 -0.00,-137.18 0.16,-136.45 83.98 80
5 11/08/2019 22:30:12 -0.00,-137.17 0.81,-133.49 418.97 80
6 11/09/2019 10:48:46 0.00,-137.17 0.34,-138.64 167.29 80
7 11/11/2019 10:39:14 0.01,-137.15 -0.31,-135.68 167.08 80
8 11/11/2019 22:57:57 -0.01,-137.14 -0.81,-140.87 424.33 80
9 11/13/2019 22:45:44 -0.02,-137.10 -0.21,-137.90 90.91 80




NCC Satellite Simultaneous Nadir Overpasses (SNOs) Prediction Service
